Regional Weather Roundup
Issued by NWS

Home | Current Version | Previous Version | Graphics & Text | Print | Product List | Glossary Off
Versions: 1 2 3 4 5 6 7 8 9 10 11 12 13 14 15 16 17 18 19 20 21 22 23 24 25 26 27 28 29 30 31 32 33 34 35 36 37 38 39 40 41 42 43 44 45 46 47 48 49 50

000
ASUS43 KDMX 271704
RWRIA

WEATHER ROUNDUP FOR IOWA
NATIONAL WEATHER SERVICE DES MOINES IA
  ISSUED BY NWS QUAD CITIES IA IL
1100 AM CST TUE JAN 27 2015

NOTE: "FAIR" INDICATES FEW OR NO CLOUDS BELOW 12,000 FEET WITH NO
SIGNIFICANT WEATHER AND/OR OBSTRUCTIONS TO VISIBILITY.

* - THESE STATIONS ARE NOT NWS STATIONS...THUS NOT UNDER NWS
QUALITY CONTROL.  THEY ALSO DO NOT REPORT WEATHER SUCH
AS PRECIPITATION OR FOG.

IAZ001>003-012>014-020>022-031>034-043>046-271800-
   NORTHWEST IOWA

CITY           SKY/WX    TMP DP  RH WIND       PRES   REMARKS
CARROLL *      SUNNY     37  34  87 SE9       30.14F WCI  31
CHEROKEE *     SUNNY     37  33  87 S9        30.13F WCI  30
DENNISON *     SUNNY     39  34  81 SE7       30.13R WCI  34
LE MARS *      CLOUDY    32  32 100 SE8       30.13S WCI  25
ORANGE CITY *  CLOUDY    34  30  86 SE6       30.11S FOG     WCI  29
SHELDON *      CLOUDY    30  32 100 SE13      30.10S FOG     WCI  20
SIOUX CITY     MOSUNNY   38  34  85 SE13      30.13S WCI  30
SPENCER        MOSUNNY   34  31  88 E7        30.13R WCI  28
STORM LAKE *   SUNNY     36  34  93 SE10      30.13S WCI  28
$$

IAZ055>058-069>071-079>083-090>094-271800-
   SOUTHWEST IOWA

CITY           SKY/WX    TMP DP  RH WIND       PRES   REMARKS
ATLANTIC *     SUNNY     41  32  70 SE7       30.16R WCI  36
AUDUBON *      SUNNY     39  34  81 SE9       30.16R WCI  33
CLARINDA *     SUNNY     43  34  70 SE7       30.18S WCI  39
COUNCIL BLFS * SUNNY     41  36  81 SE10      30.14R WCI  35
CRESTON *      SUNNY     39  34  81 SE9       30.16S WCI  33
HARLAN *       SUNNY     39  37  93 SE9       30.18S WCI  33
LAMONI         SUNNY     41  32  70 E7        30.17R WCI  36
RED OAK *      SUNNY     41  34  75 SE7       30.16S WCI  36
SHENANDOAH *   SUNNY     43  36  75 SE7       30.17S WCI  39
$$

IAZ047>049-059>061-072>074-084-271800-
   CENTRAL IOWA

CITY           SKY/WX    TMP DP  RH WIND       PRES   REMARKS
AMES           MOSUNNY   38  30  73 SE7       30.17R WCI  33
ANKENY *       SUNNY     39  30  70 VRB6      30.18R WCI  35
BOONE *        SUNNY     37  32  81 SE6       30.15S WCI  33
CHARITON *     SUNNY     39  32  75 E5        30.18R WCI  36
DES MOINES     MOSUNNY   40  31  70 E5        30.18R WCI  37
GRINNELL *     CLOUDY    35  31  85 E5        30.18R WCI  31
KNOXVILLE *    SUNNY     39  30  70 NE5       30.16S WCI  36
MARSHALLTOWN   CLOUDY    37  29  72 E7        30.16R WCI  32
PELLA *        MOSUNNY   39  32  73 E7        30.19R WCI  34
PERRY *          N/A     38  32  79 SE7       30.17S WCI  33
$$

IAZ004>006-015-016-023>025-035-036-271800-
   NORTH CENTRAL IOWA

CITY           SKY/WX    TMP DP  RH WIND       PRES   REMARKS
ALGONA *       PTSUNNY   36  32  87 SE7       30.16R WCI  30
CLARION *      MOSUNNY   36  34  93 E10       30.16R WCI  28
ESTHERVILLE    MOSUNNY   32  30  92 SE8       30.13S WCI  25
FORT DODGE *   SUNNY     36  30  80 E7        30.16S WCI  30
MASON CITY     CLOUDY    34  28  79 NE3       30.17R
WEBSTER CITY * MOSUNNY   37  34  87 SE8       30.14S WCI  31
IOWA FALLS *   CLOUDY    36  30  78 E5        30.17R WCI  32
$$

IAZ007>011-017>019-026>030-037>042-050>054-066-271800-
   NORTHEAST IOWA

CITY           SKY/WX    TMP DP  RH WIND       PRES   REMARKS
CEDAR RAPIDS   CLOUDY    32  27  81 NE9       30.18R WCI  24
CHARLES CITY * CLOUDY    32  30  93 E7        30.17S WCI  26
CLINTON *      CLOUDY    27  21  80 NE7       30.22R WCI  19
DECORAH *      CLOUDY    28  25  86 NE5       30.17R WCI  23
DUBUQUE        CLOUDY    27  21  78 N8        30.17R WCI  19
MONTICELLO *   CLOUDY    30  27  86 NE6       30.19R WCI  24
OELWEIN *      CLOUDY    30  27  86 NE9       30.18R WCI  22
WATERLOO       CLOUDY    33  29  85 E8        30.18R WCI  26
$$

IAZ064-065-067-068-078-271800-
   EAST CENTRAL IOWA

CITY           SKY/WX    TMP DP  RH WIND       PRES   REMARKS
DAVENPORT      CLOUDY    28  22  78 NE10      30.19R WCI  19
IOWA CITY      CLOUDY    33  27  78 NE7       30.21R WCI  27
MT. PLEASANT * CLOUDY    34  29  83 NE8       30.19R WCI  27
MUSCATINE *    CLOUDY    32  27  80 NE9       30.21R WCI  24
QUAD CITIES    CLOUDY    29  22  75 N10       30.19R WCI  20
$$

IAZ062-063-075>077-085>089-095>099-271800-
   SOUTHEAST IOWA

CITY           SKY/WX    TMP DP  RH WIND       PRES   REMARKS
BURLINGTON     CLOUDY    34  29  82 NE12      30.18R WCI  25
FAIRFIELD *    CLOUDY    36  28  75 N10       30.18S WCI  28
FORT MADISON * CLOUDY    37  34  87 NE8       30.19R WCI  31
KEOKUK *       PTSUNNY   39  30  70 NE8       30.17R WCI  34
OTTUMWA        MOSUNNY   37  30  75 NE9       30.18R WCI  30
WASHINGTON *   CLOUDY    34  32  93 NE10      30.19R WCI  26
$$

ABBREVIATIONS USED IN REMARKS
   TC - TEMPERATURES IN CELSIUS
  WCI - WIND CHILL INDEX
   HX - HEAT INDEX
  VSB - VISIBILITY
$$


USA.gov is the U.S. government's official web portal to all federal, state and local government web resources and services.